Regional Weather Roundup
Issued by NWS

Home | Current Version | Previous Version | Text Only | Print | Product List | Glossary Off
Versions: 1 2 3 4 5 6 7 8 9 10 11 12 13 14 15 16 17 18 19 20 21 22 23 24 25 26 27 28 29 30 31 32 33 34 35 36 37 38 39 40 41 42 43 44 45 46 47 48 49 50

000
ASUS43 KDMX 132101
RWRIA

WEATHER ROUNDUP FOR IOWA
NATIONAL WEATHER SERVICE DES MOINES IA
300 PM CST WED DEC 13 2017

NOTE: "FAIR" INDICATES FEW OR NO CLOUDS BELOW 12,000 FEET WITH NO
SIGNIFICANT WEATHER AND/OR OBSTRUCTIONS TO VISIBILITY.

* - THESE STATIONS ARE NOT NWS STATIONS...THUS NOT UNDER NWS
QUALITY CONTROL.  THEY ALSO DO NOT REPORT WEATHER SUCH
AS PRECIPITATION OR FOG.

IAZ001>003-012>014-020>022-031>034-043>046-132200-
   NORTHWEST IOWA

CITY           SKY/WX    TMP DP  RH WIND       PRES   REMARKS
CARROLL *      CLOUDY    41  30  65 NW32G43   29.74R
CHEROKEE *     CLOUDY    36  31  82 N14G23    29.79R WCI  27
DENISON *      CLOUDY    41  28  60 NW24      29.78R
LE MARS *      CLOUDY    39  30  70 NW16G25   29.81R WCI  30
ORANGE CITY *  CLOUDY    37  32  81 N14G22    29.79R WCI  29
SHELDON *      CLOUDY    36  30  80 NW18G25   29.77R WCI  25
SIOUX CITY     CLOUDY    41  29  62 NW28G36   29.81R
SPENCER        CLOUDY    35  27  72 N24G35    29.75R WCI  23
STORM LAKE *   CLOUDY    36  30  80 N26G36    29.76R WCI  23
$$

IAZ055>058-069>071-079>083-090>094-132200-
   SOUTHWEST IOWA

CITY           SKY/WX    TMP DP  RH WIND       PRES   REMARKS
ATLANTIC *     PTSUNNY   45  30  57 NW24G36   29.76R
AUDUBON *      CLOUDY    43  30  61 NW23G35   29.76R
CLARINDA *     SUNNY     50  30  46 NW24G33     N/A
COUNCIL BLFS * MOSUNNY   46  30  53 N28G37    29.78R
CRESTON *      PTSUNNY   45  30  57 NW22G31   29.74R
HARLAN  *      CLOUDY    43  30  61 NW30G41   29.80R
LAMONI         SUNNY     49  29  46 NW25G33   29.70R
RED OAK *      SUNNY     50  30  46 NW18G29   29.77R
SHENANDOAH *   SUNNY     52  30  43 NW18G31   29.78R
$$

IAZ047>049-059>061-072>074-084-132200-
   CENTRAL IOWA

CITY           SKY/WX    TMP DP  RH WIND       PRES   REMARKS
AMES           CLOUDY    36  29  75 NW25G40   29.69R WCI  24
ANKENY *       CLOUDY    37  30  75 NW29G36   29.71R WCI  25
BOONE *        CLOUDY    36  28  75 NW28G44   29.69R WCI  23
CHARITON *     CLOUDY    41  30  65 NW25G35   29.69R
DES MOINES     CLOUDY    39  30  70 NW30G39   29.70R WCI  27
GRINNELL*      CLOUDY    35  28  77 NW40G47   29.64R WCI  19
KNOXVILLE *    CLOUDY    39  28  65 NW28G37   29.67R WCI  28
MARSHALLTOWN   CLOUDY    34  27  75 NW31G40   29.63R WCI  20
NEWTON *       CLOUDY    36  28  75 NW28G40   29.67R WCI  23
PELLA *        CLOUDY    37  30  77 NW22G32   29.68R WCI  26
PERRY *        CLOUDY    38  29  72 NW24G36   29.72R WCI  26
$$

IAZ004>006-015-016-023>025-035-036-132200-
   NORTH CENTRAL IOWA

CITY           SKY/WX    TMP DP  RH WIND       PRES   REMARKS
ALGONA *       CLOUDY    36  25  64 N29G46    29.68R WCI  23
CLARION *      CLOUDY    34  28  80 NW31G45   29.65R WCI  20
ESTHERVILLE    CLOUDY    33  22  63 NW37G56   29.69R WCI  18
FORT DODGE *   CLOUDY    35  25  66 NW21G33   29.70R WCI  24
MASON CITY     CLOUDY    30  23  75 NW33G41   29.64R WCI  14
FOREST CITY *  CLOUDY    32  27  80 NW28G39   29.65R WCI  18
WEBSTER CITY * LGT RAIN  36  25  64 NW40G52   29.66R WCI  21
IOWA FALLS *   CLOUDY    35  28  75 NW35G47   29.64R WCI  20
$$

IAZ007>011-017>019-026>030-037>042-050>054-066-132200-
   NORTHEAST IOWA

CITY           SKY/WX    TMP DP  RH WIND       PRES   REMARKS
CEDAR RAPIDS   CLOUDY    35  29  78 NW31G44   29.55R WCI  22
CHARLES CITY * CLOUDY    32  28  86 NW21G33   29.59R WCI  20
CLINTON *      CLOUDY    36  27  69 NW29G35   29.45R WCI  23
DECORAH *      CLOUDY    27  23  86 NW22G30   29.52R WCI  12
DUBUQUE        CLOUDY    31  25  78 NW24G36   29.46R WCI  17
MONTICELLO *   CLOUDY    34  27  75 NW26G38   29.50R WCI  21
OELWEIN *      CLOUDY    34  27  75 NW39G48   29.53R WCI  18
WATERLOO       CLOUDY    33  26  75 NW20G40   29.58R WCI  21
$$

IAZ064-065-067-068-078-132200-
   EAST CENTRAL IOWA

CITY           SKY/WX    TMP DP  RH WIND       PRES   REMARKS
DAVENPORT      CLOUDY    37  27  67 NW31G44   29.50R WCI  24
IOWA CITY      CLOUDY    37  29  72 NW22G39   29.58R WCI  26
MT. PLEASANT * CLOUDY    36  29  76 NW22G40   29.60R WCI  24
MUSCATINE *    CLOUDY    37  30  75 NW31G38   29.55R WCI  25
QUAD CITIES    CLOUDY    39  29  67 NW28G43   29.48R WCI  28
$$

IAZ062-063-075>077-085>089-095>099-132200-
   SOUTHEAST IOWA

CITY           SKY/WX    TMP DP  RH WIND       PRES   REMARKS
BURLINGTON     CLOUDY    38  32  79 NW22G38   29.56R WCI  27
FAIRFIELD *    CLOUDY    37  28  70 NW29G43   29.60R WCI  25
FORT MADISON * CLOUDY    39  32  75 NW28G40   29.60R WCI  28
KEOKUK *       CLOUDY    43  34  70 NW25G37   29.59R
OSKALOOSA *    CLOUDY    36  29  77 NW25G40   29.65R WCI  24
OTTUMWA        CLOUDY    38  29  70 NW31G43   29.64R WCI  25
WASHINGTON *   CLOUDY    36  32  87 NW22G35   29.60R WCI  24
$$

ABBREVIATIONS USED IN REMARKS
   TC - TEMPERATURES IN CELSIUS
  WCI - WIND CHILL INDEX
   HX - HEAT INDEX
  VSB - VISIBILITY
$$





USA.gov is the U.S. government's official web portal to all federal, state and local government web resources and services.